[[[{"header":{"parameterUnit":"kt","parameterCategory":2,"dx":1,"dy":1,"la1":30.253999710083008,"la2":30.299108505249023,"lo1":-89.0895004272461,"lo2":-89.04439544677734,"nx":28,"ny":28,"refTime":"2022-10-19T21:00:00:Z","depth":0,"parameterNumber":1,"parameterNumberName":"U-component_of_WINDS"},"data":[-0.0119,-0.0118,-0.0206,-0.0246,-0.0333,-0.0377,-0.0422,-0.0489,-0.0566,-0.063,-0.0684,-0.0775,-0.089,-0.0977,-0.1042,-0.1082,-0.1103,-0.1037,-0.1096,-0.1308,-0.1343,-0.1377,-0.1382,-0.104,-0.104,-0.0863,-0.0862,-0.086,-0.0267,-0.0352,-0.0398,-0.0505,-0.0547,-0.0664,-0.0759,-0.0787,-0.0823,-0.0918,-0.0976,-0.1041,-0.1105,-0.1246,-0.1323,-0.1327,-0.1388,-0.1342,-0.1343,-0.136,-0.159,-0.1594,-0.1292,-0.1292,-0.1292,-0.1292,-0.1292,-0.1292,-0.0559,-0.0554,-0.0671,-0.0724,-0.0802,-0.0873,-0.0885,-0.0998,-0.1047,-0.1137,-0.1237,-0.1281,-0.1395,-0.1535,-0.1605,-0.1644,-0.1712,-0.169,-0.1685,-0.1677,-0.1655,-0.1897,-0.1661,-0.1663,-0.1664,-0.1665,-0.1666,0,-0.0801,-0.0876,-0.0928,-0.1005,-0.1049,-0.1119,-0.1199,-0.121,-0.1403,-0.1436,-0.1491,-0.1539,-0.1634,-0.1698,-0.1792,-0.1872,-0.1999,-0.2022,-0.2008,-0.1959,-0.1903,-0.1933,-0.2303,-0.2028,-0.2032,-0.2034,-0.2036,-0.2038,-0.1102,-0.1086,-0.1253,-0.1277,-0.1344,-0.138,-0.1422,-0.1594,-0.163,-0.1756,-0.1744,-0.1811,-0.1873,-0.1949,-0.2084,-0.2156,-0.2219,-0.2104,-0.2231,-0.2185,-0.2218,-0.2216,-0.2216,-0.2075,-0.207,-0.2066,-0.2063,0,-0.1263,-0.1412,-0.1417,-0.1585,-0.1627,-0.1602,-0.1748,-0.1752,-0.1862,-0.1884,-0.1899,-0.2072,-0.2125,-0.2281,-0.2373,-0.2453,-0.2418,-0.2477,-0.2379,-0.24,-0.2312,-0.2318,-0.2002,-0.197,-0.2327,-0.2324,-0.2321,0,-0.1579,-0.1552,-0.1776,-0.1771,-0.1748,-0.1922,-0.1895,-0.1988,-0.2089,-0.2108,-0.2278,-0.2291,-0.2489,-0.2526,-0.2644,-0.2643,-0.2661,-0.2722,-0.2753,-0.2706,-0.2698,-0.2728,-0.2744,-0.2825,-0.2827,-0.2828,-0.2829,0,-0.1815,-0.1905,-0.1898,-0.1943,-0.212,-0.2113,-0.2187,-0.2303,-0.2342,-0.2419,-0.2447,-0.2523,-0.2564,-0.2622,-0.2772,-0.2852,-0.2775,-0.2916,-0.2837,-0.2833,-0.2811,-0.281,-0.2493,-0.2831,-0.2832,-0.2832,-0.2833,0,-0.2094,-0.2166,-0.2134,-0.2286,-0.2303,-0.2299,-0.2386,-0.2419,-0.2529,-0.2603,-0.2665,-0.2797,-0.2809,-0.2938,-0.2958,-0.3019,-0.3051,-0.3112,-0.3109,-0.3119,-0.3259,-0.3058,-0.274,-0.2713,-0.3129,-0.3131,-0.3134,0,-0.2324,-0.2332,-0.2482,-0.2449,-0.2474,-0.2664,-0.2663,-0.2755,-0.2854,-0.2892,-0.3003,-0.3044,-0.3174,-0.3208,-0.3198,-0.3314,-0.3233,-0.3329,-0.3383,-0.3382,-0.3346,-0.3056,-0.2969,-0.2792,-0.3167,-0.3164,-0.3161,0,-0.2521,-0.2737,-0.272,-0.2779,-0.2929,-0.2951,-0.295,-0.303,-0.3046,-0.3132,-0.3136,-0.3198,-0.3299,-0.3354,-0.347,-0.3451,-0.3293,-0.3562,-0.3567,-0.3507,-0.3198,-0.3115,-0.3085,-0.3376,-0.3372,-0.3369,-0.3188,0,-0.2908,-0.2932,-0.2893,-0.3016,-0.3058,-0.3046,-0.3211,-0.3234,-0.3342,-0.3447,-0.3456,-0.3574,-0.3655,-0.3663,-0.3767,-0.3672,-0.3713,-0.3819,-0.3956,-0.3764,-0.3709,-0.3686,-0.4025,-0.403,-0.4034,-0.4038,0,0,-0.3091,-0.3129,-0.3294,-0.3299,-0.3345,-0.3543,-0.3515,-0.3583,-0.3715,-0.3743,-0.3821,-0.3924,-0.4015,-0.4009,-0.3963,-0.3995,-0.3994,-0.4054,-0.3854,-0.3833,-0.3814,-0.3752,-0.3726,-0.4045,-0.4047,-0.4049,-0.405,0,-0.3267,-0.3354,-0.3324,-0.3402,-0.3523,-0.3637,-0.3629,-0.3784,-0.385,-0.386,-0.4024,-0.405,-0.4127,-0.4203,-0.4252,-0.406,-0.4182,-0.4072,-0.3913,-0.3891,-0.3864,-0.3841,-0.3773,-0.3747,-0.406,-0.406,-0.4059,0,-0.349,-0.3604,-0.3608,-0.3721,-0.3802,-0.3824,-0.4008,-0.4023,-0.4041,-0.4258,-0.4264,-0.4352,-0.4467,-0.444,-0.4434,-0.4505,-0.4343,-0.4423,-0.4401,-0.4404,-0.4391,-0.4358,-0.4329,-0.471,-0.4712,-0.4713,0,0,-0.3619,-0.3643,-0.382,-0.3771,-0.3811,-0.3978,-0.4007,-0.4117,-0.4216,-0.4255,-0.437,-0.4461,-0.4509,-0.4536,-0.459,-0.4536,-0.4574,-0.4496,-0.4466,-0.444,-0.4428,-0.4408,-0.4376,-0.4719,-0.4719,-0.472,0,0,-0.3682,-0.3885,-0.3975,-0.394,-0.4027,-0.4199,-0.4163,-0.4279,-0.4344,-0.4364,-0.4552,-0.4584,-0.4562,-0.4641,-0.4702,-0.4641,-0.4774,-0.4763,-0.459,-0.4554,-0.4524,-0.4505,-0.4907,0,0,0,0,0,-0.3946,-0.386,-0.394,-0.3959,-0.4103,-0.4154,-0.4174,-0.4327,-0.4418,-0.4386,-0.4501,-0.463,-0.4713,-0.4771,-0.4787,-0.4718,-0.4796,-0.4782,-0.477,-0.4535,-0.4496,-0.4462,0,0,0,0,0,0,-0.3955,-0.3977,-0.3943,-0.4108,-0.4142,-0.4159,-0.4346,-0.4386,-0.4425,-0.4449,-0.4603,-0.4635,-0.4766,-0.4773,-0.4785,-0.4716,-0.4904,-0.4791,-0.4779,-0.4769,-0.4522,-0.4489,-0.4461,0,0,0,0,0,-0.3963,-0.3981,-0.4172,-0.4111,-0.414,-0.4322,-0.4351,-0.4385,-0.4418,-0.4596,-0.4631,-0.453,-0.476,-0.4781,-0.4781,-0.4707,-0.4896,-0.49,-0.4783,-0.4774,-0.4766,-0.4506,0,0,0,0,0,0,-0.3969,-0.4014,-0.4181,-0.4196,-0.4155,-0.4325,-0.4357,-0.4384,-0.4566,-0.4599,-0.4532,-0.4549,-0.4755,-0.4772,-0.4787,-0.4695,-0.489,-0.4894,-0.4897,-0.4776,-0.4769,-0.4763,0,0,0,0,0,0,-0.4005,-0.4024,-0.4189,-0.4236,-0.4258,-0.4326,-0.4354,-0.4377,-0.4565,-0.4492,-0.4512,-0.4537,-0.4732,-0.4765,-0.4778,-0.4807,-0.4885,-0.4889,-0.4892,-0.4894,-0.477,-0.4765,0,0,0,0,0,0,-0.4016,-0.4033,-0.4233,-0.425,-0.4269,-0.4447,-0.4349,-0.4488,-0.4604,-0.4481,-0.4619,-0.4626,-0.4721,-0.4738,-0.477,-0.4792,-0.4803,-0.4886,-0.4888,-0.489,-0.4891,0,0,0,0,0,0,0,-0.4025,-0.3875,-0.4093,-0.4261,-0.4278,-0.4333,-0.4337,-0.4341,-0.4605,-0.4611,-0.4617,-0.4623,-0.4863,-0.4868,-0.4872,-0.4781,0,0,-0.4885,-0.4887,0,0,0,0,0,0,0,0,-0.3872,-0.3874,-0.4094,-0.4097,-0.41,-0.4333,-0.4337,-0.434,-0.4606,-0.4611,-0.4616,-0.462,-0.4864,-0.4868,-0.4871,0,0,0,0,0,0,0,0,0,0,0,0,0,0,0,-0.4094,-0.4097,0,-0.4334,-0.4336,-0.4339,-0.4607,-0.4611,-0.4615,-0.4619,-0.4865,-0.4868,-0.4871,0,0,0,0,0,0,0,0,0,0,0,0,0,0,0,0,0,0,0,0,0,0,0,0,0,0,0,0,0,0,0,0,0,0,0,0,0,0,0,0,0,0,0,0,0,0,0,0,0,0,0,0,0,0,0,0,0,0,0,0,0,0,0,0,0,0,0,0,0]}],[{"header":{"parameterUnit":"kt","parameterCategory":2,"dx":1,"dy":1,"la1":30.253999710083008,"la2":30.299108505249023,"lo1":-89.0895004272461,"lo2":-89.04439544677734,"nx":28,"ny":28,"refTime":"2022-10-19T21:00:00:Z","depth":0,"parameterNumber":2,"parameterNumberName":"V-component_of_WINDS"},"data":[-0.9336,-0.9394,-0.9423,-0.9504,-0.9544,-0.9606,-0.9638,-0.9682,-0.9726,-0.9806,-0.9857,-0.9895,-0.9953,-1.0024,-1.0084,-1.01,-1.0124,-1.0124,-1.0143,-1.0114,-1.0113,-1.0111,-1.0098,-1.0128,-1.0128,-1.0168,-1.0169,-1.0169,-0.9316,-0.9355,-0.9406,-0.9475,-0.9519,-0.9537,-0.9595,-0.9632,-0.9687,-0.9742,-0.9793,-0.9867,-0.993,-0.9989,-1.0056,-1.0087,-1.0101,-1.0103,-1.0102,-1.0111,-1.0082,-1.0067,-1.0091,-1.0091,-1.0091,-1.0091,-1.0091,-1.0091,-0.9287,-0.932,-0.9378,-0.9434,-0.9476,-0.9523,-0.9561,-0.9605,-0.9657,-0.9726,-0.9753,-0.9817,-0.9879,-0.9974,-1.0014,-1.0068,-1.0071,-1.0084,-1.0087,-1.009,-1.0089,-1.0029,-1.0081,-1.0081,-1.0081,-1.0081,-1.0081,0,-0.9275,-0.9296,-0.9346,-0.9405,-0.9447,-0.9496,-0.9547,-0.9571,-0.9629,-0.967,-0.9732,-0.9773,-0.9856,-0.992,-0.9989,-1.0029,-1.0054,-1.006,-1.0069,-1.0057,-1.0037,-1.0049,-1.0001,-1.0058,-1.0058,-1.0058,-1.0058,-1.0057,-0.9248,-0.9283,-0.9357,-0.9388,-0.9422,-0.9473,-0.9509,-0.9557,-0.9594,-0.9665,-0.9694,-0.9758,-0.9811,-0.9908,-0.9962,-1.0025,-1.0038,-1.0056,-1.0048,-1.0035,-1.004,-1.0037,-1.0042,-1.0057,-1.0057,-1.0057,-1.0057,0,-0.9231,-0.9276,-0.934,-0.941,-0.9429,-0.9465,-0.9526,-0.9563,-0.9601,-0.9658,-0.9674,-0.9735,-0.9797,-0.9848,-0.9929,-0.9954,-1.0019,-1.0029,-0.9998,-1.0003,-1.0025,-1.0023,-1.0088,-1.0099,-1.0068,-1.0068,-1.0068,0,-0.9226,-0.927,-0.9337,-0.9371,-0.9423,-0.9469,-0.952,-0.9558,-0.9609,-0.9654,-0.9688,-0.973,-0.9788,-0.9838,-0.9875,-0.9937,-0.9952,-0.9976,-0.9985,-0.9973,-0.997,-0.9994,-0.9993,-1.0003,-1.0003,-1.0003,-1.0002,0,-0.9194,-0.9281,-0.9337,-0.9364,-0.9443,-0.9469,-0.9504,-0.9562,-0.9597,-0.9652,-0.9676,-0.9737,-0.9771,-0.9819,-0.9865,-0.9858,-0.9942,-0.9941,-0.9966,-0.9965,-0.9982,-0.998,-1.0025,-1.0002,-1.0002,-1.0002,-1.0002,0,-0.9197,-0.9247,-0.9321,-0.9388,-0.9409,-0.9447,-0.9508,-0.9552,-0.961,-0.9635,-0.9678,-0.9707,-0.9764,-0.9759,-0.984,-0.9816,-0.9849,-0.9876,-0.9878,-0.9887,-0.988,-0.9899,-0.9936,-0.9942,-0.9895,-0.9894,-0.9893,0,-0.9148,-0.9234,-0.9272,-0.9343,-0.9389,-0.9423,-0.9466,-0.9516,-0.9552,-0.9599,-0.964,-0.9693,-0.97,-0.9724,-0.9757,-0.9802,-0.9833,-0.98,-0.9872,-0.9874,-0.9854,-0.9889,-0.9881,-0.9922,-0.9883,-0.9884,-0.9885,0,-0.9116,-0.9208,-0.9217,-0.9251,-0.9321,-0.936,-0.9409,-0.9471,-0.95,-0.9551,-0.9595,-0.9672,-0.9681,-0.9719,-0.9749,-0.9781,-0.9814,-0.9786,-0.9788,-0.979,-0.9881,-0.9874,-0.988,-0.9828,-0.9829,-0.983,-0.9876,0,-0.9111,-0.9159,-0.9186,-0.9256,-0.9293,-0.9339,-0.9388,-0.9422,-0.9446,-0.9482,-0.9547,-0.9601,-0.9666,-0.9686,-0.9709,-0.9765,-0.9764,-0.9772,-0.9771,-0.9793,-0.981,-0.9816,-0.9743,-0.9743,-0.9743,-0.9743,0,0,-0.9053,-0.9122,-0.9162,-0.9209,-0.9243,-0.9276,-0.9321,-0.9359,-0.9433,-0.9457,-0.9457,-0.9572,-0.9616,-0.969,-0.9701,-0.9727,-0.9742,-0.9732,-0.9782,-0.9786,-0.979,-0.9807,-0.9813,-0.9744,-0.9744,-0.9744,-0.9744,0,-0.9061,-0.91,-0.9142,-0.9182,-0.9242,-0.9277,-0.9287,-0.9353,-0.9378,-0.9441,-0.9469,-0.9514,-0.9604,-0.9647,-0.9681,-0.9724,-0.9744,-0.974,-0.9746,-0.9783,-0.9786,-0.979,-0.9807,-0.9812,-0.9745,-0.9745,-0.9745,0,-0.9038,-0.9085,-0.9109,-0.9186,-0.9225,-0.9272,-0.9283,-0.9331,-0.9367,-0.9403,-0.9464,-0.9501,-0.9563,-0.9625,-0.9656,-0.9657,-0.9742,-0.9724,-0.9724,-0.9728,-0.9766,-0.977,-0.9774,-0.9722,-0.9722,-0.9722,0,0,-0.9038,-0.9082,-0.9146,-0.9191,-0.9214,-0.9266,-0.9296,-0.9321,-0.9373,-0.9394,-0.9441,-0.9493,-0.9547,-0.958,-0.9632,-0.9694,-0.9712,-0.9719,-0.972,-0.972,-0.9725,-0.9763,-0.9768,-0.9721,-0.9721,-0.972,0,0,-0.9039,-0.9114,-0.9127,-0.9184,-0.9232,-0.93,-0.9326,-0.9345,-0.9396,-0.9396,-0.9444,-0.946,-0.952,-0.9555,-0.9534,-0.9633,-0.9631,-0.9637,-0.9608,-0.961,-0.9611,-0.9601,-0.9554,0,0,0,0,0,-0.907,-0.9105,-0.9116,-0.9132,-0.9229,-0.9293,-0.9306,-0.9345,-0.9343,-0.9363,-0.9406,-0.9424,-0.9554,-0.9537,-0.9554,-0.9577,-0.9706,-0.9709,-0.9711,-0.9688,-0.9689,-0.9691,0,0,0,0,0,0,-0.9077,-0.9097,-0.9115,-0.9183,-0.9205,-0.9292,-0.9297,-0.9309,-0.9342,-0.9344,-0.9415,-0.9426,-0.9462,-0.9531,-0.9546,-0.9566,-0.9549,-0.9707,-0.9709,-0.9711,-0.9688,-0.9689,-0.9691,0,0,0,0,0,-0.9083,-0.9099,-0.9243,-0.9183,-0.9202,-0.9262,-0.9296,-0.9306,-0.9332,-0.9397,-0.9409,-0.9358,-0.9461,-0.9477,-0.954,-0.9558,-0.9539,-0.9544,-0.9709,-0.971,-0.9712,-0.9689,0,0,0,0,0,0,-0.9087,-0.9109,-0.9248,-0.9255,-0.9172,-0.9258,-0.9273,-0.9303,-0.9385,-0.9396,-0.9343,-0.9344,-0.9462,-0.9473,-0.9485,-0.9553,-0.953,-0.9536,-0.9539,-0.971,-0.9711,-0.9712,0,0,0,0,0,0,-0.9101,-0.9115,-0.9252,-0.9235,-0.9241,-0.9254,-0.9267,-0.9326,-0.9385,-0.9326,-0.9329,-0.9342,-0.9445,-0.9471,-0.948,-0.9571,-0.9524,-0.9529,-0.9533,-0.9535,-0.9711,-0.9712,0,0,0,0,0,0,-0.9108,-0.912,-0.9234,-0.9238,-0.9243,-0.933,-0.9308,-0.9405,-0.9368,-0.9322,-0.9366,-0.9365,-0.9442,-0.9453,-0.9477,-0.9564,-0.9569,-0.9524,-0.9528,-0.953,-0.9532,0,0,0,0,0,0,0,-0.9113,-0.902,-0.9203,-0.9241,-0.9245,-0.9324,-0.9326,-0.9328,-0.9368,-0.9367,-0.9366,-0.9366,-0.9494,-0.95,-0.9506,-0.9558,0,0,-0.9524,-0.9526,0,0,0,0,0,0,0,0,-0.9016,-0.9019,-0.9204,-0.9205,-0.9207,-0.9324,-0.9326,-0.9328,-0.9368,-0.9367,-0.9367,-0.9366,-0.9495,-0.95,-0.9505,0,0,0,0,0,0,0,0,0,0,0,0,0,0,0,-0.9204,-0.9205,0,-0.9324,-0.9326,-0.9327,-0.9368,-0.9367,-0.9367,-0.9366,-0.9497,-0.9501,-0.9504,0,0,0,0,0,0,0,0,0,0,0,0,0,0,0,0,0,0,0,0,0,0,0,0,0,0,0,0,0,0,0,0,0,0,0,0,0,0,0,0,0,0,0,0,0,0,0,0,0,0,0,0,0,0,0,0,0,0,0,0,0,0,0,0,0,0,0,0,0]}]]]